Weather History for KFTG - December, 2011

Change the Weather History Date:

Monday, December 19, 2011

  Actual Average (KDEN) Record (KDEN)
Temperature  
Mean Temperature 26 °F 29 °F  
Max Temperature 30 °F 42 °F 67 °F (1917)
Min Temperature 23 °F 17 °F -10 °F (1989)
Degree Days  
Heating Degree Days 38 36  
Month to date heating degree days 663  
Since 1 July heating degree days 2045  
Cooling Degree Days 0 0  
Month to date cooling degree days 0  
Year to date cooling degree days 769  
Moisture  
Dew Point 21 °F    
Average Humidity 83    
Maximum Humidity 100    
Minimum Humidity 64    
Precipitation  
Precipitation 0.00 in 0.01 in 0.75 in (1913)
Month to date precipitation 0.22  
Year to date precipitation 14.17  
Snow  
Snow 0.00 in - - ()
Month to date snowfall  
Since 1 July snowfall  
Snow Depth -    
Sea Level Pressure  
Sea Level Pressure 30.09 in    
Wind  
Wind Speed 9 mph (NNW)    
Max Wind Speed 20 mph    
Max Gust Speed 21 mph    
Visibility 8 miles    
Events Fog , Snow    
T = Trace of Precipitation, MM = Missing Value Source: NWS Daily Summary

Daily Weather History Graph

Daily Weather History Graph

Search for Another Location

Airport or City:

Trip Planner

Search our weather history database for the weather conditions in past years. The results will help you decide how hot, cold, wet, or windy it might be!

Date:

Astronomy

Dec. 19, 2011 Rise Set
Actual Time 7:14 AM MST 4:35 PM MST
Civil Twilight 6:44 AM MST 5:06 PM MST
Nautical Twilight 6:10 AM MST 5:40 PM MST
Astronomical Twilight 5:37 AM MST 6:13 PM MST
Moon 1:28 AM MST (12/19) 12:35 PM MST (12/19)
Length of Visible Light 10h 22m
Length of Day
9h 21m
Waning Crescent, 30% of the Moon is Illuminated
Dec 19
Waning Crescent
Dec 24
New
Dec 31
First Quarter
Jan 9
Full
Jan 16
Last Quarter

Hourly Weather History & Observations

Time (MST) Temp. Windchill Dew Point Humidity Pressure Visibility Wind Dir Wind Speed Gust Speed Precip Events Conditions
12:03 AM 28.4 °F 21.2 °F 21.2 °F 74% 29.93 in 10.0 mi NW 6.9 mph - N/A   Clear
12:23 AM 28.4 °F 23.3 °F 23.0 °F 80% 29.93 in 10.0 mi West 4.6 mph - N/A   Clear
12:43 AM 30.2 °F 25.4 °F 21.2 °F 69% 29.93 in 10.0 mi West 4.6 mph - N/A   Clear
1:03 AM 28.4 °F 23.3 °F 21.2 °F 74% 29.94 in 10.0 mi West 4.6 mph - N/A   Clear
1:23 AM 28.4 °F 21.2 °F 19.4 °F 69% 29.94 in 10.0 mi NNW 6.9 mph - N/A   Clear
1:43 AM 30.2 °F 23.4 °F 19.4 °F 64% 29.96 in 10.0 mi NNW 6.9 mph - N/A   Clear
2:03 AM 28.4 °F 19.7 °F 19.4 °F 69% 29.96 in 10.0 mi NNW 9.2 mph - N/A   Clear
2:23 AM 28.4 °F 20.4 °F 19.4 °F 69% 29.98 in 10.0 mi NW 8.1 mph - N/A   Clear
2:43 AM 26.6 °F 19.1 °F 21.2 °F 80% 30.00 in 10.0 mi WNW 6.9 mph - N/A   Clear
3:03 AM 28.4 °F 19.1 °F 19.4 °F 69% 30.00 in 10.0 mi WNW 10.4 mph - N/A   Clear
3:23 AM 28.4 °F 21.2 °F 19.4 °F 69% 30.03 in 10.0 mi WNW 6.9 mph - N/A   Clear
3:43 AM 26.6 °F 18.2 °F 19.4 °F 74% 30.03 in 10.0 mi WNW 8.1 mph - N/A   Clear
4:03 AM 26.6 °F 17.5 °F 19.4 °F 74% 30.03 in 10.0 mi NW 9.2 mph - N/A   Clear
4:23 AM 26.6 °F 16.8 °F 19.4 °F 74% 30.04 in 10.0 mi NW 10.4 mph - N/A   Clear
5:03 AM 26.6 °F 17.5 °F 21.2 °F 80% 30.05 in 10.0 mi NW 9.2 mph - N/A   Clear
5:23 AM 24.8 °F 14.6 °F 19.4 °F 80% 30.06 in 10.0 mi NW 10.4 mph - N/A   Clear
5:43 AM 24.8 °F 14.6 °F 19.4 °F 80% 30.06 in 10.0 mi NW 10.4 mph - N/A   Clear
6:03 AM 23.0 °F 14.7 °F 19.4 °F 86% 30.07 in 10.0 mi NW 6.9 mph - N/A   Clear
6:22 AM 26.6 °F 17.5 °F 19.4 °F 74% 30.08 in 10.0 mi NNW 9.2 mph - N/A   Clear
6:43 AM 26.6 °F 21.2 °F 19.4 °F 74% 30.09 in 10.0 mi NW 4.6 mph - N/A   Mostly Cloudy
7:02 AM 24.8 °F 19.1 °F 19.4 °F 80% 30.11 in 10.0 mi WNW 4.6 mph - N/A   Scattered Clouds
7:24 AM 26.6 °F 22.6 °F 19.4 °F 74% 30.12 in 10.0 mi NNW 3.5 mph - N/A   Mostly Cloudy
7:44 AM 26.6 °F 18.2 °F 21.2 °F 80% 30.12 in 10.0 mi North 8.1 mph - N/A   Overcast
7:53 AM 26.6 °F 18.2 °F 19.4 °F 74% 30.11 in 10.0 mi North 8.1 mph - N/A   Mostly Cloudy
8:04 AM 26.6 °F 18.2 °F 21.2 °F 80% 30.11 in 10.0 mi North 8.1 mph - N/A   Scattered Clouds
8:24 AM 28.4 °F 19.7 °F 21.2 °F 74% 30.12 in 10.0 mi North 9.2 mph - N/A   Mostly Cloudy
9:04 AM 26.6 °F 14.3 °F 23.0 °F 86% 30.14 in 10.0 mi North 16.1 mph - N/A   Overcast
9:23 AM 26.6 °F 13.1 °F 23.0 °F 86% 30.14 in 10.0 mi NNE 19.6 mph - N/A   Overcast
9:44 AM 26.6 °F 13.4 °F 23.0 °F 86% 30.15 in 10.0 mi NNE 18.4 mph - N/A   Overcast
10:04 AM 26.6 °F 15.7 °F 23.0 °F 86% 30.16 in 7.0 mi NNE 12.7 mph - N/A   Overcast
10:23 AM 24.8 °F 12.4 °F 23.0 °F 93% 30.16 in 3.0 mi North 15.0 mph - N/A   Overcast
10:41 AM 24.8 °F 11.9 °F 23.0 °F 93% 30.14 in 1.2 mi North 16.1 mph - N/A   Overcast
11:04 AM 26.6 °F 14.3 °F 24.8 °F 93% 30.13 in 0.5 mi North 16.1 mph - N/A Fog Light Freezing Fog
11:22 AM 26.6 °F 14.3 °F 24.8 °F 93% 30.11 in 0.5 mi North 16.1 mph - N/A Fog Light Freezing Fog
11:43 AM 26.6 °F 15.7 °F 24.8 °F 93% 30.12 in 1.0 mi North 12.7 mph 20.7 mph N/A   Overcast
12:04 PM 26.6 °F 14.3 °F 24.8 °F 93% 30.12 in 2.0 mi NNE 16.1 mph - N/A   Overcast
1:04 PM 26.6 °F 16.8 °F 24.8 °F 93% 30.12 in 2.5 mi North 10.4 mph - N/A   Overcast
1:24 PM 26.6 °F 15.7 °F 24.8 °F 93% 30.12 in 3.0 mi North 12.7 mph - N/A   Overcast
1:44 PM 26.6 °F 14.7 °F 24.8 °F 93% 30.13 in 2.0 mi North 15.0 mph - N/A   Overcast
2:03 PM 26.6 °F 15.7 °F 24.8 °F 93% 30.13 in 1.5 mi North 12.7 mph - N/A   Overcast
2:24 PM 24.8 °F 13.4 °F 23.0 °F 93% 30.13 in 5.0 mi North 12.7 mph 16.1 mph N/A   Overcast
2:44 PM 24.8 °F 12.9 °F 23.0 °F 93% 30.13 in 10.0 mi NNE 13.8 mph - N/A   Overcast
3:04 PM 24.8 °F 14.0 °F 23.0 °F 93% 30.13 in 2.0 mi North 11.5 mph - N/A Snow Light Snow
3:23 PM 24.8 °F 13.4 °F 23.0 °F 93% 30.13 in 3.0 mi North 12.7 mph - N/A Snow Light Snow
4:04 PM 23.0 °F 11.7 °F 23.0 °F 100% 30.16 in 10.0 mi North 11.5 mph - N/A   Overcast
4:24 PM 24.8 °F 16.1 °F 21.2 °F 86% 30.16 in 10.0 mi North 8.1 mph - N/A   Overcast
4:44 PM 24.8 °F 16.1 °F 21.2 °F 86% 30.16 in 10.0 mi North 8.1 mph - N/A   Overcast
5:04 PM 24.8 °F 16.1 °F 21.2 °F 86% 30.16 in 10.0 mi North 8.1 mph - N/A   Overcast
5:23 PM 23.0 °F 13.9 °F 19.4 °F 86% 30.16 in 10.0 mi North 8.1 mph - N/A   Overcast
5:44 PM 23.0 °F 14.7 °F 19.4 °F 86% 30.16 in 10.0 mi North 6.9 mph - N/A   Overcast
6:04 PM 23.0 °F 14.7 °F 19.4 °F 86% 30.16 in 10.0 mi NNW 6.9 mph - N/A   Overcast
6:43 PM 23.0 °F 17.0 °F 19.4 °F 86% 30.18 in 10.0 mi NW 4.6 mph - N/A   Overcast
7:03 PM 23.0 °F 17.0 °F 19.4 °F 86% 30.18 in 10.0 mi WNW 4.6 mph - N/A   Overcast
7:24 PM 23.0 °F 18.4 °F 19.4 °F 86% 30.18 in 10.0 mi WNW 3.5 mph - N/A   Overcast
7:44 PM 23.0 °F 18.4 °F 19.4 °F 86% 30.18 in 10.0 mi West 3.5 mph - N/A   Overcast
8:03 PM 23.0 °F 14.7 °F 21.2 °F 93% 30.18 in 10.0 mi West 6.9 mph - N/A   Overcast
8:24 PM 23.0 °F - 19.4 °F 86% 30.18 in 10.0 mi Calm Calm - N/A   Overcast
8:43 PM 23.0 °F - 19.4 °F 86% 30.18 in 10.0 mi Calm Calm - N/A   Overcast
8:53 PM 23.0 °F 18.4 °F 19.4 °F 86% 30.18 in 10.0 mi WNW 3.5 mph - N/A   Mostly Cloudy
9:23 PM 23.0 °F 17.0 °F 19.4 °F 86% 30.16 in 10.0 mi West 4.6 mph - N/A   Mostly Cloudy
9:43 PM 23.0 °F 18.4 °F 17.6 °F 80% 30.16 in 10.0 mi West 3.5 mph - N/A   Overcast
10:03 PM 23.0 °F 18.4 °F 17.6 °F 80% 30.15 in 10.0 mi West 3.5 mph - N/A   Mostly Cloudy
10:23 PM 23.0 °F - 17.6 °F 80% 30.16 in 10.0 mi Calm Calm - N/A   Scattered Clouds
10:43 PM 23.0 °F - 17.6 °F 80% 30.16 in 10.0 mi Calm Calm - N/A   Mostly Cloudy
11:03 PM 23.0 °F - 19.4 °F 86% 30.16 in 10.0 mi Calm Calm - N/A   Overcast
11:23 PM 23.0 °F - 19.4 °F 86% 30.16 in 10.0 mi Calm Calm - N/A   Overcast
11:42 PM 23.0 °F 17.0 °F 19.4 °F 86% 30.15 in 10.0 mi WSW 4.6 mph - N/A   Scattered Clouds